Regional Weather Roundup
Issued by NWS Newport/Morehead, NC

Current Version | Previous Version | Graphics & Text | Print | Product List | Glossary Off
Versions: 1 2 3 4 5 6 7 8 9 10 11 12 13 14 15 16 17 18 19 20 21 22 23 24 25 26 27 28 29 30 31 32 33 34 35 36 37 38 39 40 41 42 43 44 45 46 47 48 49 50

000
ASUS42 KMHX 270713
RWRMHX
WEATHER ROUNDUP FOR EASTERN NORTH CAROLINA
NATIONAL WEATHER SERVICE NEWPORT/MOREHEAD CITY NC
300 AM EDT TUE SEP 27 2016

NOTE: "FAIR" INDICATES FEW OR NO CLOUDS BELOW 12,000 FEET
WITH NO SIGNIFICANT WEATHER AND/OR OBSTRUCTIONS TO VISIBILITY

NCZ015>017-031-032-045>047-102-103-270800-
NORTH COAST

CITY           SKY/WX    TMP DP  RH WIND       PRES   REMARKS
EDENTON        CLOUDY    74  67  79 SW5       30.01F
ELIZABETH CITY CLOUDY    72  65  78 S6        30.00F
KITTY HAWK     MOSUNNY   74  71  88 S3        30.00F
MANTEO         MOCLDY    76  69  79 SW14      30.02S

$$

NCZ045>047-081-094-103-104-270800-
CENTRAL COAST

CITY           SKY/WX    TMP DP  RH WIND       PRES   REMARKS
FRISCO         CLOUDY    78  66  66 S12       30.02F

$$

NCZ095-097-098-100-101-270800-
SOUTHERN COAST

CITY           SKY/WX    TMP DP  RH WIND       PRES   REMARKS
BEAUFORT       MOCLDY    76  66  71 SE5       30.00F
CEDAR ISLAND   NOT AVBL
JACKSONVILLE   PTCLDY    71  68  90 CALM      29.99F
PINEY ISLAND   CLOUDY   N/A N/A N/A SE5       30.00F
WILMINGTON     CLOUDY    71  69  93 SE3       29.99F


$$

NCZ011>013-027>030-043-044-078>080-089-090>093-098-270800-
COASTAL PLAIN

CITY           SKY/WX    TMP DP  RH WIND       PRES   REMARKS
AHOSKIE        CLOUDY    69  67  93 S3        30.01S
CLINTON        CLOUDY    70  69  96 CALM      30.01F
ELIZABETHTOWN  CLOUDY    70  69  96 CALM      30.01S
GOLDSBORO      CLOUDY    70  70 100 NW2       29.99F
GREENVILLE     CLOUDY    70  68  94 CALM      30.03F
HAVELOCK       CLOUDY    71  66  84 CALM      30.01F
KENANSVILLE    CLOUDY    68  66  94 CALM      30.01S FOG
KINSTON        CLOUDY    69  67  92 CALM      30.02S
NEW BERN       CLOUDY    68  66  93 CALM      30.01F
RICHLANDS      CLOUDY    69  68  96 CALM      30.00F
ROCKY MOUNT    CLOUDY    70  68  93 CALM      30.01F
WASHINGTON     CLOUDY    69  67  93 CALM      30.01F
WHITEVILLE     NOT AVBL

$$

AMZ130-135-150-152-154-156-158-170-250-252-270-ANZ085-086-088-633-658-670-270800-
MARINE OBSERVATIONS

STATION/POSITION TIME  TEMP    WIND        PRES    WAVE   SWELL
                       AIR SEA DIR/SP/G            HT/PER HT/PER
                 (UTC) (F)     (DEG/KT/KT) (MB)    (FT/S) (FT/S)
CHESAPEAKE LIGHT NOT AVBL
64 E VA BEACH    0650   75 74  180/ 16/ 17 1015.7    3/ 5   2/10
DUCK             0642      76  190/  9/ 12 1015.6
2 E DUCK         0641      76                N/A     3/ 9   2/14
OREGON INLET     0642      76  160/  9/ 12 1016.4
13E OREGON INLT  0700      76                N/A     3/ 8   3/ 5
HATTERAS CG      0642      78  160/ 12/ 15 1016.1
DIAMOND BUOY     0650   79 85  160/ 14/ 16 1016.2    4/ 5   2/ 9
CAPE LOOKOUT     0600   79     150/ 10/ 11 1016.3
BEAUFORT LAB     0642      76  170/  8/  9 1015.5
30 SE NEW RVR IN 0608   80 82  140/ 12/ 16 1016.3
30 SE NEW RVR IN 0655      82                N/A     3/ 8
27 SE WRIGHTSVLE 0608   80 81  130/ 12/ 16 1016.3
5 SE WRIGHTSVLE  0608   80 81  150/ 10/ 16 1017.0
225 S CAPE HAT   0650   81 83  130/ 16/ 19 1014.3    5/ 6   3/ 9
41 SE CHARLESTON 0650   80 82  130/  8/ 10 1013.4    3/ 5   3/ 5

$$




USA.gov is the U.S. government's official web portal to all federal, state and local government web resources and services.